This is the latest recevied weather packets stored in our database for station/object OE9XVI-6. If no packets are shown the sender has not sent any weather packets the latest 1 day(s).
| Time | Temp. | Humidity | Pressure | Rain* | Wind** | Luminosity | Snow |
|---|---|---|---|---|---|---|---|
| 1777991213 | 26.11° C | 45% | 1008.8 hPa | 0 mm | 0 m/s | - | - |
| 1777990613 | 22.78° C | 43% | 1008.7 hPa | 0 mm | 1.34 m/s, 337° | - | - |
| 1777990013 | 22.78° C | 43% | 1009 hPa | 0 mm | 0 m/s | - | - |
| 1777989413 | 23.89° C | 48% | 1008.8 hPa | 0 mm | 0 m/s | - | - |
| 1777988813 | 20° C | 53% | 1008.8 hPa | 0 mm | 0 m/s | - | - |
| 1777988213 | 20° C | 52% | 1009 hPa | 0 mm | 0 m/s | - | - |
| 1777987613 | 20° C | 50% | 1009 hPa | 0 mm | 0 m/s | - | - |
| 1777987013 | 18.89° C | 53% | 1009.1 hPa | 0 mm | 0 m/s | - | - |
| 1777986413 | 18.89° C | 46% | 1009.1 hPa | 0 mm | 0.89 m/s, 337° | - | - |
| 1777985813 | 18.89° C | 47% | 1009.2 hPa | 0 mm | 0 m/s | - | - |
| 1777985213 | 20° C | 49% | 1009.2 hPa | 0 mm | 0 m/s | - | - |
| 1777984613 | 19.44° C | 48% | 1009.3 hPa | 0 mm | 1.34 m/s, 322° | - | - |
| 1777984013 | 20° C | 51% | 1009.3 hPa | 0 mm | 0 m/s | - | - |
| 1777983413 | 20° C | 47% | 1009.3 hPa | 0 mm | 3.58 m/s, 139° | - | - |
| 1777982814 | 18.89° C | 55% | 1009.4 hPa | 0 mm | 0.89 m/s, 122° | - | - |
| 1777982214 | 17.78° C | 56% | 1009.5 hPa | 0 mm | 0 m/s | - | - |
| 1777981614 | 19.44° C | 49% | 1009.4 hPa | 0 mm | 0 m/s | - | - |
| 1777981014 | 18.89° C | 54% | 1009.4 hPa | 0 mm | 1.34 m/s, 129° | - | - |
| 1777980414 | 18.33° C | 55% | 1009.7 hPa | 0 mm | 0 m/s | - | - |
| 1777979814 | 17.22° C | 56% | 1009.7 hPa | 0 mm | 0 m/s | - | - |
| 1777979214 | 16.11° C | 57% | 1009.8 hPa | 0 mm | 0 m/s | - | - |
| 1777978614 | 16.11° C | 58% | 1009.8 hPa | 0 mm | 1.34 m/s, 154° | - | - |
| 1777978014 | 16.11° C | 61% | 1009.7 hPa | 0 mm | 0 m/s | - | - |
| 1777977414 | 16.11° C | 55% | 1009.7 hPa | 0 mm | 0.45 m/s, 323° | - | - |
| 1777976814 | 16.67° C | 48% | 1009.8 hPa | 0 mm | 0 m/s | - | - |
* Rain latest hour (hover to see other rain measurements)
** Current wind speed in m/s (hover to see current wind gust speed)